Home   Weather   Santiago de Cuba   Past weeks

Flag for Cuba Past Weather in Santiago de Cuba, Cuba — Yesterday and Last 2 Weeks

84 °F

Scattered clouds.

Feels Like: 87 °F
Forecast: 72 / 86 °F
Wind: 13 mph from Northeast

Location: Santiago De Cuba - Oriente

Current Time: Oct 25, 2016 at 11:44:12 AM

Latest Report: Oct 25, 2016 at 10:51 AM

Visibility: N/A

Pressure: 29.98 "Hg

Humidity: 58%

Dew Point: 68 °F

Location of Santiago de CubaLocation

Past Weather in Santiago de Cuba — Graph


Santiago de Cuba Temperature Yesterday

Maximum temperature yesterday: 90 °F (at 1:51 PM)
Minimum temperature yesterday: 73 °F (at 3:50 AM)
Average temperature yesterday: 78 °F

High & Low Weather Summary for the Past Weeks

High91 °F (Oct 14, 11:51 AM)100% (Oct 10, 10:50 PM)30.04 "Hg (Oct 10, 10:50 PM)
Low72 °F (Oct 12, 6:50 AM)49% (Oct 14, 11:51 AM)29.74 "Hg (Oct 17, 4:53 PM)
Average79 °F76%29.89 "Hg
* Reported Oct 10 9:50 AM — Oct 25 9:50 AM, Santiago de Cuba, Weather by CustomWeather, © 2016

Note: Actual official high and low records may vary slightly from our data, if they occured in-between our weather recording intervals... More about our weather records


Santiago de Cuba Weather History for the Previous 24 Hours

Scroll right to see more
Time TempWeatherWind HumidityBarometerVisibility
9:50 AM
Tue, Oct 25
82 °FScattered clouds.12 mph62%29.98 "HgN/A
8:50 AM79 °FPassing clouds.14 mph70%29.95 "HgN/A
7:50 AM75 °FScattered clouds.12 mph78%29.95 "Hg6 mi
6:50 AM75 °FPassing clouds.9 mph78%29.92 "Hg6 mi
5:52 AM75 °FPassing clouds.10 mph78%29.92 "Hg6 mi
4:50 AM75 °FPassing clouds.9 mph78%29.92 "Hg6 mi
3:51 AM75 °FPassing clouds.9 mph78%29.92 "Hg6 mi
2:51 AM75 °FPassing clouds.10 mph78%29.92 "Hg6 mi
1:51 AM75 °FPassing clouds.12 mph78%29.95 "Hg6 mi
12:50 AM75 °FPassing clouds.10 mph78%29.95 "Hg6 mi
11:50 PM
Mon, Oct 24
75 °FPassing clouds.9 mph78%29.98 "Hg6 mi
10:50 PM75 °FPassing clouds.8 mph78%29.98 "Hg6 mi
9:50 PM77 °FPassing clouds.9 mph69%29.98 "Hg6 mi
8:50 PM79 °FPassing clouds.8 mph65%29.98 "Hg6 mi
7:50 PM79 °FPassing clouds.7 mph65%29.95 "Hg6 mi
6:51 PM81 °FPassing clouds.3 mph70%29.92 "Hg6 mi
5:51 PM82 °FScattered clouds.7 mph66%29.92 "Hg6 mi
1:51 PM90 °FScattered clouds.8 mph52%29.95 "Hg6 mi
12:51 PM88 °FPassing clouds.8 mph55%29.98 "Hg6 mi
11:52 AM86 °FPassing clouds.12 mph55%30.01 "Hg6 mi
Weather by CustomWeather, © 2016

See weather overviewHow to use our weather pages